KAITUO 1B
1 40912U 15049P   18067.48445442  .00001248  00000-0  63652-4 0  9993
2 40912  97.4517  76.2478 0015938   8.8828 144.5526 15.18495458136383
TIANWANG 1C (TW-1C)
1 40926U 15051B   18067.37206284  .00006385  00000-0  12667-3 0  9994
2 40926  97.1961 110.2305 0008562 292.6225 123.0578 15.47331970137712
TIANWANG 1B (TW-1B)
1 40927U 15051C   18067.32786014  .00006411  00000-0  13246-3 0  9998
2 40927  97.2046 110.0736 0008477 305.2850 187.4617 15.46142928137624
TIANWANG 1A (TW-1A)
1 40928U 15051D   18067.05599008 +.00002748 +00000-0 +75345-4 0  9992
2 40928 097.1962 103.0143 0011491 336.0319 077.7909 15.38083532137235
LAPAN A2
1 40931U 15052B   18066.67357938 +.00000909 +00000-0 +37495-4 0  9999
2 40931 006.0030 153.9898 0014086 011.8182 348.2209 14.76569434131979
LQSAT
1 40958U 15057A   18067.22374829 +.00000052 +00000-0 +15897-4 0  9994
2 40958 097.9490 142.5435 0017072 303.6707 056.2881 14.73019371129999
CHUBUSAT 2
1 41338U 16012B   18066.89711332  .00000366  00000-0  21894-4 0  9997
2 41338  31.0023 237.1675 0013754 150.8839 209.2565 14.99930344112611
CHUBUSAT 3
1 41339U 16012C   18067.12324889  .00000301  00000-0  16706-4 0  9997
2 41339  31.0109 234.4743 0013526 159.9450 200.1704 15.00121454112633
OUFTI-1
1 41458U 16025C   18067.41208083  .00001379  00000-0  75450-4 0  9999
2 41458  98.1499 124.8363 0172669 125.3237 236.4247 15.04322143102281
E-STAR-2
1 41459U 16025D   18067.20220626 +.00000866 +00000-0 +49304-4 0  9993
2 41459 098.1490 124.4926 0173574 126.5073 235.2283 15.04074350102248
AAUSAT 4
1 41460U 16025E   18067.40568769  .00001689  00000-0  91077-4 0  9998
2 41460  98.1431 125.0603 0165154 122.5904 239.1366 15.05379279102321
NUSAT 1
1 41557U 16033B   18067.26409817  .00001237  00000-0  47852-4 0  9997
2 41557  97.4410 151.6586 0014767 149.0689 211.1423 15.28050409 98749
BEESAT 4
1 41619U 16040W   18067.21403622 +.00001221 +00000-0 +56814-4 0  9998
2 41619 097.4274 131.7142 0010735 217.7397 142.3087 15.21798850082738
PRATHAM
1 41783U 16059A   18067.11436293 +.00000038 +00000-0 +16791-4 0  9994
2 41783 098.1306 130.2437 0034615 054.5309 305.9115 14.62904422077188
ALSAT 1N
1 41789U 16059G   18067.42992433  .00000082  00000-0  24786-4 0  9999
2 41789  98.1311 131.5745 0029373  46.7012 313.6634 14.64131966 77274
NAYIF 1
1 42017U 17008BX  18067.19696539 +.00001306 +00000-0 +56734-4 0  9999
2 42017 097.4602 132.8155 0007017 029.0034 331.1591 15.24095409058681
LILACSAT-1
1 42725U 98067ME  18067.41537469  .00014354  00000-0  15064-3 0  9997
2 42725  51.6364 150.2800 0003851 220.1216 139.9495 15.64637459 44710
MAX VALIER SAT
1 42778U 17036P   18067.40593976  .00000826  00000-0  40197-4 0  9991
2 42778  97.4164 128.7382 0014219  66.9010 293.3723 15.21073510 39186
